This is the latest recevied weather packets stored in our database for station/object SP4LIN-15. If no packets are shown the sender has not sent any weather packets the latest 10 day(s).
| Time | Temp. | Humidity | Pressure | Rain* | Wind** | Luminosity | Snow |
|---|---|---|---|---|---|---|---|
| 1778106240 | 6.67° C | 86% | 999.7 hPa | 0 mm | - | - | - |
| 1778105341 | 6.67° C | 86% | 999.6 hPa | 0 mm | - | - | - |
| 1778104440 | 6.67° C | 86% | 999.8 hPa | 0 mm | - | - | - |
| 1778103541 | 6.67° C | 85% | 999.7 hPa | 0 mm | - | - | - |
| 1778102641 | 7.22° C | 85% | 999.7 hPa | 0 mm | - | - | - |
| 1778101741 | 7.22° C | 85% | 999.7 hPa | 0 mm | - | - | - |
| 1778100841 | 7.22° C | 84% | 999.4 hPa | 0 mm | - | - | - |
| 1778099941 | 7.22° C | 84% | 999.2 hPa | 0 mm | - | - | - |
| 1778099041 | 7.78° C | 84% | 999.2 hPa | 0 mm | - | - | - |
| 1778098141 | 7.78° C | 84% | 999 hPa | 0 mm | - | - | - |
| 1778097241 | 7.78° C | 84% | 998.8 hPa | 0 mm | - | - | - |
| 1778096341 | 7.78° C | 83% | 998.7 hPa | 0 mm | - | - | - |
| 1778095441 | 8.33° C | 82% | 998.7 hPa | 0 mm | - | - | - |
| 1778094541 | 8.89° C | 81% | 998.6 hPa | 0 mm | - | - | - |
| 1778093641 | 8.89° C | 79% | 998.6 hPa | 0 mm | - | - | - |
| 1778092741 | 9.44° C | 77% | 998.4 hPa | 0 mm | - | - | - |
| 1778091841 | 10.56° C | 75% | 998.2 hPa | 0 mm | - | - | - |
| 1778090941 | 11.11° C | 73% | 998 hPa | 0 mm | - | - | - |
| 1778090041 | 12.22° C | 73% | 998.1 hPa | 0 mm | - | - | - |
| 1778089141 | 12.22° C | 72% | 997.9 hPa | 0 mm | - | - | - |
| 1778088241 | 12.78° C | 72% | 997.9 hPa | 0 mm | - | - | - |
| 1778087341 | 12.78° C | 71% | 997.8 hPa | 0 mm | - | - | - |
| 1778086441 | 13.33° C | 70% | 997.9 hPa | 0 mm | - | - | - |
| 1778085541 | 13.89° C | 69% | 997.8 hPa | 0 mm | - | - | - |
| 1778084641 | 14.44° C | 71% | 997.9 hPa | 0 mm | - | - | - |
* Rain latest hour (hover to see other rain measurements)
** Current wind speed in m/s (hover to see current wind gust speed)